Location: Praha
(50.0830°N, 14.4670°E)
Time: 12:48:50
(UTC+02:00)

ISS - Pass Details

Date: 10 July 2019
Orbit: 409 x 418 km, 51.6° (Epoch: 21 July)

Event Time Altitude Azimuth Distance (km) Brightness Sun altitude
Exits shadow 03:14:45 12° 259° (W) 1,388 -1.5 -12.3°
Maximum altitude 03:17:51 81° 346° (NNW) 421 -3.7 -12.1°
Drops below altitude 10° 03:21:10 10° 75° (ENE) 1,479 -0.3 -11.8°
Sets 03:23:15 0° 76° (ENE) 2,341 0.8 -11.6°
